Location: Unspecified
(35.7250°N, 0.0000°E)
Time: 11:20:34
(UTC+00:00)

SRMSAT - Visible Passes

Search period start: 20 July 2019 00:00
Search period end: 30 July 2019 00:00
Orbit: 848 x 866 km, 20.0° (Epoch: 19 July)

Date Brightness Start Highest point End Pass type
(mag) Time Alt. Az. Time Alt. Az. Time Alt. Az.
21 Jul ? 21:20:22 10° SSW 21:20:32 10° SSW 21:20:32 10° SSW visible
22 Jul ? 21:07:08 10° SSW 21:08:41 14° SSW 21:08:41 14° SSW visible
23 Jul ? 20:53:56 10° SSW 20:56:43 16° S 20:56:43 16° S visible
24 Jul ? 20:40:47 10° SW 20:44:25 17° S 20:44:42 16° S visible
25 Jul ? 20:27:39 10° SW 20:31:21 17° S 20:32:36 16° SSE visible
26 Jul ? 20:14:33 10° SW 20:18:17 17° S 20:20:27 14° SSE visible
27 Jul ? 20:01:29 10° SW 20:05:13 17° S 20:08:15 12° SSE visible
28 Jul ? 19:48:26 10° SW 19:52:09 17° S 19:55:52 10° SE visible
29 Jul ? 19:35:25 10° SW 19:39:05 17° S 19:42:44 10° SE visible
29 Jul ? 21:25:36 10° SSW 21:25:44 10° SSW 21:25:44 10° SSW visible
